Location: Newark
(7.0858°N, 171.3717°E)
Time: 07:46:20
(UTC+00:00)

Courier 1B - Pass Details

Date: 05 December 2020
Orbit: 962 x 1209 km, 28.3° (Epoch: 20 January)

Event Time Altitude Azimuth Distance (km) Brightness Sun altitude
Rises 14:05:50 0° 306° (NW) 3,805 - -61.3°
Reaches altitude 10° 14:08:33 10° 311° (NW) 2,888 - -60.8°
Maximum altitude 14:15:30 55° 28° (NNE) 1,316 - -59.4°
Drops below altitude 10° 14:22:53 10° 104° (ESE) 3,065 - -57.8°
Exits shadow 14:23:40 - 106° (ESE) 3,322 10.6 -57.6°
Sets 14:25:51 0° 109° (ESE) 4,055 11.2 -57.2°
